User: anonymous   Login
Location: Lake Superior Provincial Park
(47.3335°N, 84.6162°W)
Time: 23:35:49
(UTC-04:00)
Language:

Cosmos 2333 Rocket - Orbit

View from above orbital plane
View from above orbital plane
View from above satellite
View from above satellite

Ground track
Ground track

The orbit data is extracted from the following two-line orbital elements,

1 24298U 96051B   17117.65912218 +.00000049 +00000-0 +52789-4 0  9995
2 24298 070.8495 168.5801 0019192 255.1798 104.7197 14.12492186064421
Epoch (UTC): 27 April 2017 15:49:08
Eccentricity: 0.0019192
inclination: 70.8495°
perigee height: 837 km
apogee height: 865 km
right ascension of ascending node: 168.5801°
argument of perigee: 255.1798°
revolutions per day: 14.12492186
mean anomaly at epoch: 104.7197°
orbit number at epoch: 6442

The dashed part of the orbit path shows where the satellite is in the earth's shadow,  

DLR